Wind_Speed
9 5 4 6 30 35 32 29 30 32 29 25 27 22 34 33 29 30 28 29 28 33 33 32 30 29 28 28 27 24 20 19 14 15 14 12 8 11 9 10 11 10 12
16 13 6 5 18 36 35 34 34 32 28 30 29 27 33 39 36 34 33 34 34 36 36 34 32 30 30 28 25 23 21 19 16 19 15 13 14 15 14 12 12 14 15
20 17 11 8 6 24 39 39 39 38 38 35 33 31 27 33 41 39 37 37 37 38 39 35 34 34 32 31 27 25 24 23 20 17 18 19 20 19 17 18 20 21 24
24 19 15 10 6 8 10 27 43 45 42 40 39 36 32 29 38 45 42 41 43 39 37 37 37 38 35 35 33 29 30 30 27 24 21 24 25 28 29 31 27 27 26
30 25 18 13 13 8 7 11 17 27 36 44 43 41 40 37 34 45 46 46 47 46 40 39 42 42 39 38 38 33 33 35 29 28 25 25 26 26 27 30 31 32 34
36 36 29 23 21 23 15 16 11 15 22 34 42 46 46 43 41 39 50 51 50 52 48 46 44 46 42 42 39 39 37 37 35 35 37 33 31 32 31 35 37 37 37
42 42 39 33 31 28 23 20 18 23 21 21 30 37 42 45 45 42 46 54 51 55 54 52 50 50 47 46 45 43 44 44 42 42 42 41 39 40 40 39 39 39 42
46 46 43 40 36 34 32 27 25 23 25 25 21 29 38 44 45 47 45 50 54 52 56 60 58 55 53 52 52 49 47 46 42 41 42 43 45 45 48 49 48 49 47
54 51 50 46 44 37 37 35 33 29 26 26 25 25 31 38 43 47 47 49 54 53 50 57 59 58 57 59 56 54 52 52 49 50 50 51 50 51 50 54 57 56 53
64 58 55 51 49 46 42 41 41 37 36 33 30 32 28 31 41 44 45 48 55 56 54 53 58 62 61 58 58 59 58 56 55 53 53 54 54 56 56 55 55 57 57
50 62 64 61 58 56 52 47 47 43 40 38 34 37 37 32 31 42 47 48 52 56 56 54 53 58 64 63 62 60 61 61 60 61 61 61 61 60 58 58 59 58 57
47 49 55 61 64 64 59 56 52 51 47 43 40 36 40 38 38 39 46 47 47 53 54 56 59 57 58 58 62 66 68 70 67 67 63 63 62 62 63 64 62 59 58
45 47 48 49 56 65 66 62 60 57 55 53 49 45 45 39 44 44 46 52 54 52 53 53 54 56 55 59 59 59 60 63 66 64 66 67 67 67 66 65 66 66 65
36 40 45 45 46 51 61 67 66 62 61 60 55 52 52 48 46 45 48 51 58 61 59 60 60 60 60 61 65 68 69 68 66 66 69 70 71 72 72 71 71 70 70
34 34 37 41 46 46 49 56 64 66 64 64 59 57 57 58 54 51 48 51 56 60 63 66 67 67 67 67 68 70 71 73 74 74 73 73 74 74 77 79 78 75 74
32 31 31 36 38 41 44 47 50 59 65 67 62 63 62 61 58 58 56 55 55 59 62 66 68 71 72 73 73 73 73 75 78 78 77 79 80 80 80 82 85 86 84
29 30 30 33 35 35 36 39 43 47 51 60 63 65 67 66 63 62 62 62 63 65 68 70 71 74 76 77 78 78 79 79 81 81 82 83 83 84 85 83 84 88 91
26 26 29 32 26 23 27 33 37 37 38 41 47 52 55 60 64 65 66 67 68 70 71 73 75 79 81 84 86 87 87 88 88 88 89 88 89 90 90 90 91 91 93
36 28 26 24 25 22 14 8 17 29 32 28 33 33 35 38 42 47 53 58 63 67 71 72 75 78 80 84 87 90 92 93 94 94 94 95 97 98 99 100 100 100 101
45 37 33 27 28 23 17 19 19 17 14 14 19 22 24 25 27 29 31 35 44 51 54 61 68 73 76 79 82 87 92 96 99 99 100 101 102 103 104 106 107 107 106
41 35 35 32 31 29 30 24 23 27 28 24 22 25 28 26 34 35 39 35 39 43 46 47 49 57 61 66 70 76 81 83 85 88 91 94 97 100 100 102 103 104 105
41 43 44 40 33 30 30 31 31 35 30 34 38 37 34 36 28 36 34 40 42 45 48 49 50 51 56 60 62 63 63 64 67 71 75 79 82 84 85 86 85 85 84
48 52 48 47 46 44 41 42 39 36 40 41 43 40 36 41 39 46 46 48 48 47 47 48 50 50 50 52 54 56 57 58 58 58 58 59 58 58 56 55 55 56 54
57 39 45 31 53 52 50 45 42 43 45 39 36 35 39 47 51 50 52 53 48 50 57 56 52 51 50 51 50 49 48 50 50 50 50 50 47 47 48 49 50 49 46
55 42 38 43 46 56 56 46 41 39 40 41 48 46 48 51 53 56 49 53 55 56 52 57 55 50 47 48 48 45 45 46 46 47 48 48 47 46 44 44 45 45 44
51 44 43 49 42 42 42 47 48 45 45 42 47 50 58 59 59 57 53 57 53 54 57 58 55 50 48 47 47 47 46 46 48 47 46 47 47 45 44 45 45 44 42
Wind_Direction
243 224 297 272 208 214 214 204 210 208 209 204 219 213 207 206 202 197 194 190 190 180 176 173 172 170 169 165 169 170 169 170 179 185 198 207 222 220 245 247 245 240 248
219 220 251 226 208 212 215 213 212 217 216 213 219 216 211 209 206 204 203 199 198 192 187 188 187 184 184 181 185 187 190 195 200 206 209 222 226 244 253 266 263 259 263
215 207 224 170 156 213 219 222 226 224 225 226 227 232 224 220 213 209 207 208 205 200 198 203 201 199 200 199 210 211 210 209 215 215 223 241 254 256 253 255 260 263 263
216 205 205 187 176 173 201 226 231 231 228 232 230 230 234 228 224 218 215 213 215 214 219 220 215 207 211 213 213 217 223 223 230 233 245 251 254 258 257 263 267 271 267
211 196 210 211 218 222 222 228 217 225 230 233 232 232 231 234 228 225 220 217 217 220 227 230 230 224 225 222 224 231 231 228 236 242 247 256 256 258 264 264 266 271 276
228 220 212 227 238 246 240 247 231 224 228 229 229 233 234 236 234 229 225 226 226 226 226 230 233 232 235 233 232 236 239 241 248 255 256 260 259 264 267 272 276 276 279
234 228 233 233 230 228 231 231 243 251 249 245 233 232 234 234 233 229 228 228 231 231 229 228 233 236 238 237 238 241 243 246 252 258 263 261 264 265 271 275 277 281 281
237 232 229 235 234 233 233 236 235 234 232 239 255 243 234 232 230 226 230 230 231 233 233 232 232 235 237 239 242 243 246 247 254 258 259 259 265 270 272 276 280 283 282
237 236 233 234 238 236 235 238 234 236 241 244 247 260 244 237 233 230 229 231 232 234 238 235 230 233 237 241 244 247 250 252 254 262 262 263 264 267 267 273 276 279 280
241 238 236 234 234 238 237 236 239 239 241 239 240 247 253 243 236 236 234 233 233 234 237 237 239 238 239 241 245 247 252 256 257 261 265 265 269 271 271 271 277 279 280
238 239 239 239 237 236 237 238 238 239 239 241 242 240 246 247 246 237 233 236 235 236 239 241 241 243 245 248 249 251 253 256 257 262 266 266 269 272 271 273 274 273 275
243 239 240 240 240 239 239 238 238 238 240 241 241 240 241 248 254 245 233 233 232 236 240 241 243 247 250 250 252 253 254 256 260 262 264 266 266 267 269 272 270 268 269
246 243 241 241 241 239 241 240 237 237 241 245 246 244 244 243 246 252 244 234 229 232 235 240 243 248 252 250 250 253 257 259 261 262 262 263 265 266 267 266 267 269 271
253 249 246 247 247 244 241 241 241 240 241 243 245 244 244 252 256 252 252 246 239 237 239 241 244 250 255 256 256 258 259 259 261 262 263 263 264 265 266 266 266 268 268
260 260 255 249 248 249 250 244 241 241 242 243 242 244 243 253 257 256 258 255 251 246 248 248 249 252 256 260 261 261 261 261 263 265 266 266 266 267 267 266 265 267 268
264 269 260 255 254 254 253 252 246 243 243 243 243 245 250 251 255 258 258 253 252 253 253 254 257 259 260 262 263 264 265 265 266 267 268 269 271 272 272 270 267 264 268
252 257 252 252 253 256 256 253 250 248 247 247 248 249 251 255 258 259 259 257 258 259 259 255 256 259 261 262 263 263 264 266 267 268 269 270 271 272 272 271 271 270 269
246 245 238 241 246 251 254 251 251 251 246 247 250 249 250 252 254 255 257 260 258 257 257 257 259 260 260 261 262 263 264 266 266 267 268 268 270 270 270 270 271 271 271
236 232 240 240 234 239 249 273 247 242 236 239 242 247 252 255 259 260 260 260 260 260 261 260 262 263 262 262 262 263 264 265 266 267 268 268 269 270 270 270 270 271 271
240 218 217 228 247 245 260 273 281 280 264 244 255 261 252 253 264 264 266 265 267 266 267 267 266 265 266 267 267 266 266 266 267 269 270 271 271 272 273 272 272 273 273
226 223 218 226 240 236 259 266 279 291 287 281 273 290 265 264 287 284 273 284 275 279 276 276 280 273 272 272 272 272 271 270 271 273 273 273 273 273 274 275 275 276 276
228 230 228 231 234 248 251 254 259 272 273 275 281 285 281 292 279 301 286 297 302 304 292 289 284 283 280 278 277 276 279 278 277 276 276 276 276 276 277 278 279 280 281
228 225 235 237 244 253 258 260 259 247 261 270 278 284 284 283 286 296 307 307 312 310 307 301 296 292 289 288 287 284 283 284 286 287 286 285 285 285 285 286 289 291 290
224 237 242 243 248 256 255 259 253 256 262 269 278 278 279 282 286 293 301 305 312 311 309 308 301 297 290 288 288 288 290 292 292 293 293 294 295 296 296 297 297 300 301
223 233 238 243 253 252 246 250 250 253 255 260 277 276 281 284 292 295 303 307 308 308 307 307 303 298 293 289 289 287 290 292 296 297 298 300 301 302 303 303 302 304 305
224 231 229 230 238 252 252 251 259 268 273 269 272 278 285 291 291 297 301 305 308 308 306 303 298 293 291 290 288 288 290 292 292 292 293 295 296 298 299 303 306 309 310
Height
10920 10920 10918 10915 10916 10922 10928 10933 10940 10945 10953 10960 10956 10957 10967 10976 10978 10979 10981 10983 10985 10986 10989 10992 10993 10996 10998 11001 11005 11008 11010 11010 11012 11014 11015 11016 11018 11020 11021 11021 11020 11021 11021
10917 10918 10917 10916 10916 10921 10926 10931 10936 10942 10948 10955 10960 10963 10968 10970 10972 10975 10979 10982 10985 10986 10987 10990 10994 10997 10999 11000 11003 11007 11010 11011 11012 11012 11014 11016 11018 11021 11021 11021 11020 11020 11019
10913 10914 10915 10915 10915 10918 10922 10927 10932 10938 10942 10948 10952 10956 10960 10964 10968 10971 10976 10979 10982 10985 10987 10989 10993 10994 10997 10998 11000 11003 11005 11008 11009 11011 11014 11016 11016 11017 11017 11016 11015 11015 11015
10908 10910 10912 10913 10914 10916 10919 10921 10924 10928 10933 10938 10943 10947 10951 10955 10959 10965 10970 10974 10978 10980 10983 10986 10989 10991 10993 10995 10997 10999 11001 11003 11004 11007 11009 11010 11011 11010 11011 11009 11009 11008 11007
10904 10906 10908 10909 10912 10913 10913 10915 10916 10919 10924 10930 10934 10939 10943 10947 10952 10957 10962 10967 10971 10975 10978 10980 10983 10986 10989 10991 10994 10996 10997 10998 10999 11000 11002 11002 11002 11002 11001 11001 11001 11001 11000
10896 10899 10901 10905 10906 10908 10911 10911 10911 10911 10916 10920 10925 10929 10934 10938 10943 10948 10954 10959 10963 10966 10970 10973 10976 10978 10981 10984 10987 10988 10990 10991 10992 10993 10994 10996 10995 10994 10994 10994 10993 10992 10991
10886 10890 10894 10897 10901 10902 10904 10906 10907 10909 10912 10913 10915 10918 10926 10930 10933 10939 10943 10948 10953 10957 10961 10964 10967 10970 10973 10976 10977 10979 10981 10983 10984 10986 10985 10988 10987 10986 10985 10985 10983 10982 10981
10877 10881 10885 10888 10892 10894 10896 10898 10900 10902 10904 10907 10910 10912 10913 10917 10921 10927 10931 10937 10941 10946 10951 10954 10958 10961 10964 10966 10966 10967 10969 10972 10975 10976 10976 10977 10977 10977 10975 10975 10973 10970 10969
10866 10871 10875 10878 10882 10885 10887 10890 10893 10895 10898 10898 10900 10903 10905 10907 10913 10917 10920 10925 10929 10934 10938 10944 10948 10951 10954 10955 10959 10960 10961 10961 10964 10963 10963 10964 10965 10965 10966 10963 10960 10960 10956
10852 10858 10862 10867 10871 10874 10878 10880 10883 10886 10889 10891 10893 10895 10897 10900 10903 10907 10911 10915 10918 10922 10928 10933 10938 10939 10940 10942 10945 10948 10947 10949 10950 10951 10952 10951 10951 10951 10951 10951 10950 10947 10944
10837 10842 10848 10854 10857 10862 10867 10870 10872 10876 10878 10881 10884 10887 10889 10891 10893 10896 10900 10904 10908 10912 10918 10923 10925 10927 10927 10931 10932 10934 10936 10935 10936 10937 10936 10936 10935 10935 10936 10936 10936 10934 10931
10825 10829 10833 10839 10844 10848 10853 10858 10862 10866 10869 10872 10875 10877 10881 10883 10884 10886 10888 10892 10896 10901 10906 10910 10910 10913 10914 10915 10915 10917 10919 10920 10921 10921 10921 10921 10922 10922 10921 10920 10919 10918 10917
10814 10818 10821 10825 10830 10837 10841 10846 10851 10855 10859 10862 10866 10869 10872 10874 10877 10877 10877 10880 10883 10886 10891 10894 10896 10898 10898 10900 10902 10904 10904 10905 10906 10906 10906 10905 10905 10905 10906 10904 10903 10902 10900
10804 10806 10810 10814 10817 10821 10826 10832 10838 10842 10847 10851 10853 10857 10861 10862 10865 10868 10869 10870 10873 10876 10878 10879 10881 10882 10883 10885 10887 10889 10889 10890 10891 10890 10889 10888 10887 10887 10887 10887 10884 10883 10883
10796 10798 10801 10805 10808 10811 10812 10816 10821 10827 10832 10837 10839 10842 10847 10849 10853 10855 10858 10861 10862 10864 10866 10867 10868 10869 10870 10871 10871 10872 10872 10871 10872 10872 10871 10870 10869 10868 10867 10866 10865 10863 10863
10789 10791 10792 10793 10796 10797 10800 10802 10806 10811 10815 10821 10826 10830 10834 10837 10840 10843 10846 10847 10849 10850 10852 10853 10855 10854 10855 10855 10855 10855 10854 10853 10853 10852 10850 10849 10848 10847 10845 10843 10842 10841 10841
10776 10778 10782 10784 10785 10786 10788 10790 10792 10796 10800 10806 10811 10816 10820 10823 10825 10828 10830 10832 10834 10835 10836 10837 10837 10836 10836 10835 10835 10835 10834 10833 10831 10830 10829 10827 10827 10825 10823 10821 10819 10817 10817
10766 10767 10772 10777 10780 10781 10781 10782 10783 10787 10790 10794 10798 10801 10803 10806 10808 10811 10813 10814 10815 10817 10817 10817 10817 10816 10815 10814 10814 10813 10812 10811 10809 10808 10807 10805 10803 10801 10799 10797 10795 10792 10791
10755 10754 10761 10769 10773 10774 10776 10777 10778 10781 10782 10785 10787 10790 10791 10793 10794 10795 10796 10796 10797 10798 10797 10798 10796 10794 10793 10793 10791 10790 10789 10787 10785 10783 10782 10780 10777 10775 10773 10770 10769 10768 10765
10742 10743 10750 10759 10766 10769 10770 10773 10774 10777 10777 10778 10781 10781 10781 10783 10784 10784 10783 10782 10781 10782 10780 10778 10777 10774 10772 10769 10769 10768 10766 10763 10760 10759 10757 10754 10751 10747 10744 10741 10740 10740 10739
10734 10739 10744 10752 10756 10761 10764 10766 10767 10769 10770 10771 10773 10774 10774 10774 10774 10774 10773 10770 10770 10768 10765 10763 10760 10757 10754 10752 10749 10747 10744 10741 10737 10733 10729 10727 10724 10720 10716 10710 10708 10706 10703
10726 10731 10736 10741 10745 10747 10752 10755 10758 10761 10763 10762 10764 10764 10764 10765 10763 10763 10762 10760 10756 10751 10749 10746 10743 10740 10737 10734 10731 10728 10725 10720 10716 10712 10707 10703 10699 10695 10691 10686 10682 10678 10674
10719 10723 10728 10731 10734 10736 10741 10745 10746 10749 10752 10754 10755 10753 10753 10753 10752 10751 10747 10745 10743 10739 10735 10731 10727 10722 10719 10714 10711 10709 10704 10701 10697 10692 10689 10685 10680 10676 10671 10666 10660 10656 10652
10709 10714 10718 10725 10724 10728 10731 10733 10735 10738 10741 10743 10744 10743 10743 10742 10740 10738 10735 10732 10728 10725 10720 10715 10710 10705 10701 10699 10697 10692 10688 10684 10681 10677 10674 10669 10665 10660 10655 10650 10647 10642 10636
10698 10706 10711 10716 10717 10717 10721 10723 10725 10727 10729 10730 10732 10732 10729 10728 10727 10726 10722 10717 10712 10708 10704 10700 10696 10691 10687 10684 10680 10678 10675 10672 10668 10663 10659 10655 10651 10647 10643 10638 10634 10629 10624
10691 10699 10703 10704 10703 10707 10709 10712 10713 10714 10718 10718 10718 10718 10716 10715 10713 10711 10708 10705 10700 10696 10690 10685 10681 10677 10674 10671 10668 10665 10662 10659 10656 10652 10648 10644 10640 10636 10632 10627 10622 10618 10614